This is the latest recevied weather packets stored in our database for station/object CA3DPI. If no packets are shown the sender has not sent any weather packets the latest 10 day(s).
| Time | Temp. | Humidity | Pressure | Rain* | Wind** | Luminosity | Snow |
|---|---|---|---|---|---|---|---|
| 1777732636 | 22.22° C | 44% | 1020.3 hPa | - | - | - | - |
| 1777730219 | 20° C | 44% | 1020.8 hPa | - | - | - | - |
| 1777729618 | 19.44° C | 46% | 1020.8 hPa | - | - | - | - |
| 1777729018 | 19.44° C | 45% | 1020.9 hPa | - | - | - | - |
| 1777728418 | 17.78° C | 49% | 1021 hPa | - | - | - | - |
| 1777727818 | 16.67° C | 50% | 1021.1 hPa | - | - | - | - |
| 1777727218 | 16.11° C | 49% | 1021.1 hPa | - | - | - | - |
| 1777726618 | 16.11° C | 49% | 1021.1 hPa | - | - | - | - |
| 1777726017 | 14.44° C | 50% | 1021.1 hPa | - | - | - | - |
| 1777725417 | 13.33° C | 50% | 1020.9 hPa | - | - | - | - |
| 1777724816 | 12.22° C | 52% | 1021.1 hPa | - | - | - | - |
| 1777724216 | 11.67° C | 52% | 1021.1 hPa | - | - | - | - |
| 1777723616 | 11.67° C | 56% | 1021.1 hPa | - | - | - | - |
| 1777723016 | 10.56° C | 53% | 1021.1 hPa | - | - | - | - |
| 1777722416 | 10.56° C | 54% | 1021 hPa | - | - | - | - |
| 1777721816 | 10° C | 55% | 1020.8 hPa | - | - | - | - |
| 1777721216 | 10° C | 57% | 1020.9 hPa | - | - | - | - |
| 1777720615 | 10° C | 57% | 1020.8 hPa | - | - | - | - |
| 1777720015 | 9.44° C | 57% | 1020.7 hPa | - | - | - | - |
| 1777719415 | 9.44° C | 56% | 1020.6 hPa | - | - | - | - |
| 1777718815 | 10° C | 56% | 1020.5 hPa | - | - | - | - |
| 1777718215 | 10.56° C | 55% | 1020.7 hPa | - | - | - | - |
| 1777717614 | 10° C | 58% | 1020.7 hPa | - | - | - | - |
| 1777717014 | 10° C | 57% | 1020.7 hPa | - | - | - | - |
| 1777716414 | 10° C | 49% | 1020.6 hPa | - | - | - | - |
* Rain since midnight (hover to see other rain measurements)
** Current wind speed in m/s (hover to see current wind gust speed)